COSMOS 2251 DEB, 34476

Orbit data source: Space-Track

COSMOS 2251 DEB, 34476 is space debris in LEO originally from a launch on Wed, 16 Jun 1993 UTC launched from the Plesetsk Missile And Space Complex (PKMTR). The debris from Iridium 33, an American commercial communications satellite, has been tracked extensively since its accidental collision with the defunct Russian satellite Cosmos 2251 in 2009. This event, occurring at high speed in low Earth orbit (LEO), generated thousands of pieces of space debris, significantly increasing the risk of further collisions. The Iridium 33 debris cloud has impacted space traffic management and orbital debris mitigation strategies, making it a subject of ongoing study in space situational awareness.

Loading next visibility...
Identifier
34476, 1993-036TV
Orbit
LEO
Country
Flag of CISCIS
Related business
Manufacturer
Unknown
Mission
Spacecraft
Bus & Motor
Unknown
Mass
Unknown
Launch date (UTC)
1993-06-16 (33 years ago)
Launch vehicle
Unknown
Launch site
Plesetsk Missile And Space Complex (PKMTR)
Object type
Payload
Rocket body
Debris
Shape & HBR
Unknown shape, 0.1 m
Radar Cross Section
Small (<0.1 m²)

Expand to show TLE details & history
Last TLE update: 6 hours ago

TLE from 6 hours ago
0 COSMOS 2251 DEB
1 34476U 93036TV  26123.18934969  .00002478  00000-0  15596-2 0  9997
2 34476  74.0049 203.7780 0312691  32.2765 329.7073 13.83380004855935
Epoch: 2026-05-03T04:32Z
TLE epoch observation values (Epoch: 2026-05-03T04:32:39.813Z)
Latitude
-0.00005°
Longitude
-85.48437°
Altitude
758.427 km
Speed
7.575 km/s
True Right ascension
13h 35m 06s
True Declination
0° 00' 00"
Sunlit
Object was in full shadow at epoch
Visualization orbit readout
Latitude
Unknown
Longitude
Unknown
Altitude
Unknown
Speed
Unknown
Apparent Right ascension
Unknown
Apparent Declination
Unknown
Sunlit
N/A
Visualization observer readout
Local Sidereal Time
17:58:23
Azimuth
Unknown
Elevation
Unknown
Doppler factor
Unknown
Orbital elements
Apogee altitude
1,178.736 km
Perigee altitude
720.473 km
Semi-major axis
7,327.741 km
Eccentricity
0.03127
Inclination
74.0049°
RAAN
203.778°
Arg. of periapsis
32.2765°
True anomaly
327.83718°
Mean anomaly
329.7073°
Eccentric anomaly
328.77864°
Mean motion
3.46009 °/min
Orbital period
104.04 mins
BSTAR
0.0015596

Documentation

Showing up to 5 results
|